EW5043 Weather Reports


time (UTC)temp
F
wind
direction
speed
knots
gust
knots
rain 1hr
in
rain 24hr
in
rain mn
in
humidity
%
barometer
mb
20260507070031 44 310 6.1 0.0 0.00 0.00 0.00 22 1010.9
20260507064518 45 300 6.1 0.0 0.00 0.00 0.00 22 1010.7
20260507063009 45 306 7.8 0.0 0.00 0.00 0.00 21 1010.7
20260507061559 45 306 7.0 0.0 0.00 0.00 0.00 15 1010.9
20260507060050 45 318 7.8 0.0 0.00 0.00 0.00 10 1011.1
20260507054541 45 309 7.8 0.0 0.00 0.00 0.00 100 1011.1
20260507053133 45 311 7.8 0.0 0.00 0.00 0.00 100 1011.2
20260507051521 45 309 7.0 0.0 0.00 0.00 0.00 100 1011.1
20260507050011 45 312 7.0 0.0 0.00 0.00 0.00 100 1011.0
20260507044503 45 315 7.8 0.0 0.00 0.00 0.00 100 1011.1
20260507043053 45 317 8.7 0.0 0.00 0.00 0.00 100 1011.1
20260507041544 45 307 8.7 0.0 0.00 0.00 0.00 100 1010.8
20260507040138 45 304 7.8 0.0 0.00 0.00 0.00 100 1010.8
20260507034627 45 304 7.0 0.0 0.00 0.00 0.56 100 1010.7
20260507033016 45 316 7.8 0.0 0.00 0.00 0.56 100 1010.7
20260507031506 45 309 7.8 0.0 0.00 0.00 0.56 100 1010.5
20260507030058 45 305 5.2 0.0 0.00 0.00 0.56 100 1010.7
20260507024602 44 302 4.3 0.0 0.00 0.00 0.56 100 1010.7
20260507023046 44 298 4.3 0.0 0.00 0.00 0.56 100 1010.6
20260507021533 44 304 4.3 0.0 0.00 0.00 0.56 100 1010.7
20260507020028 44 320 5.2 0.0 0.00 0.00 0.56 100 1010.8
20260507014521 44 327 4.3 0.0 0.00 0.00 0.56 100 1010.9
20260507013103 46 336 4.3 0.0 0.00 0.00 0.56 100 1010.8
20260507011555 47 316 3.5 0.0 0.00 0.00 0.56 100 1010.4
20260507010050 47 315 2.6 0.0 0.00 0.00 0.56 100 1010.3
20260507004639 47 307 1.7 0.0 0.00 0.00 0.56 100 1010.1
20260507003041 47 307 1.7 0.0 0.00 0.00 0.56 100 1009.8
20260507001520 47 307 0.9 0.0 0.00 0.00 0.56 100 1009.8
20260507000010 47 307 1.7 0.0 0.00 0.00 0.56 100 1009.9
20260506234502 46 360 0.9 0.0 0.00 0.00 0.56 100 1009.7
20260506233152 46 360 0.9 0.0 0.00 0.00 0.56 100 1009.4
20260506231543 46 360 0.9 0.0 0.00 0.00 0.56 100 1009.3
20260506230136 46 360 0.0 0.0 0.00 0.00 0.56 100 1009.1
20260506224526 46 360 0.0 0.0 0.00 0.00 0.56 100 1008.8
20260506223017 45 360 0.0 0.0 0.00 0.00 0.56 100 1008.8
20260506221508 45 360 0.9 0.0 0.00 0.00 0.56 100 1009.3
20260506220101 45 360 0.9 0.0 0.00 0.00 0.56 100 1009.0
20260506213057 45 360 0.0 0.0 0.00 0.00 0.56 100 1008.8
20260506211534 45 360 0.9 0.0 0.00 0.00 0.56 100 1008.8
20260506210027 45 360 1.7 0.0 0.00 0.00 0.56 100 1009.0
20260506204515 45 360 1.7 0.0 0.00 0.00 0.56 100 1008.8
20260506203006 45 355 2.6 0.0 0.00 0.00 0.56 100 1008.7
20260506201558 44 351 2.6 0.0 0.00 0.00 0.56 100 1008.6
20260506200149 44 355 3.5 0.0 0.00 0.00 0.56 100 1008.5
20260506194541 44 343 4.3 0.0 0.00 0.00 0.56 100 1008.7
20260506193031 44 355 5.2 0.0 0.00 0.00 0.56 100 1008.8
20260506191522 44 360 5.2 0.0 0.00 0.00 0.56 100 1008.7
20260506190014 44 5 7.0 0.0 0.00 0.00 0.56 100 1008.5
20260506184613 44 5 7.8 0.0 0.00 0.00 0.56 100 1008.4
20260506183153 44 5 7.0 0.0 0.00 0.00 0.56 100 1008.5
20260506181610 44 5 7.0 0.0 0.00 0.00 0.56 100 1008.5
20260506180036 45 44 4.3 0.0 0.00 0.00 0.56 100 1008.2
20260506174526 44 37 7.0 0.0 0.00 0.00 0.56 100 1007.7
20260506173115 44 37 6.1 0.0 0.00 0.00 0.56 100 1007.9
20260506171508 44 37 4.3 0.0 0.00 0.00 0.56 100 1007.9
20260506170058 44 355 5.2 0.0 0.00 0.00 0.56 100 1007.7
20260506164549 44 34 6.1 0.0 0.00 0.00 0.56 100 1007.5
20260506163040 44 355 7.0 0.0 0.00 0.00 0.56 100 1007.5
20260506161530 44 34 6.1 0.0 0.00 0.00 0.56 100 1007.6
20260506160023 44 40 6.1 0.0 0.00 0.00 0.56 100 1007.8
20260506154512 44 43 6.1 0.0 0.00 0.00 0.56 100 1007.7
20260506153114 44 44 4.3 0.0 0.00 0.00 0.56 100 1007.9
20260506151655 44 20 6.1 0.0 0.00 0.00 0.56 100 1007.9
20260506150053 44 25 6.1 0.0 0.00 0.00 0.56 100 1007.6
20260506144537 44 59 6.1 0.0 0.00 0.00 0.56 100 1007.5
20260506143032 44 24 7.0 0.0 0.00 0.00 0.56 100 1007.2
20260506141519 44 53 3.5 0.0 0.00 0.00 0.56 100 1007.4
20260506140112 44 55 3.5 0.0 0.00 0.00 0.56 100 1007.3
20260506133053 45 50 4.3 0.0 0.00 0.00 0.56 100 1007.3
20260506131551 45 86 3.5 0.0 0.00 0.00 0.56 100 1007.3
20260506130037 45 86 2.6 0.0 0.00 0.00 0.56 100 1007.4
20260506124526 45 43 3.5 0.0 0.00 0.00 0.56 100 1007.3
20260506123121 45 44 3.5 0.0 0.00 0.00 0.55 100 1007.5
20260506121508 46 55 2.6 0.0 0.00 0.00 0.55 100 1007.3
20260506114555 45 88 2.6 0.0 0.00 0.00 0.54 100 1007.1
20260506113044 45 66 4.3 0.0 0.00 0.00 0.54 100 1007.1
20260506111533 45 68 4.3 0.0 0.00 0.00 0.53 100 1007.4
20260506110024 45 103 4.3 0.0 0.00 0.00 0.52 100 1007.2
20260506104616 46 58 2.6 0.0 0.00 0.00 0.50 100 1007.7
20260506103106 46 66 0.9 0.0 0.00 0.00 0.46 100 1007.7
20260506101558 46 61 0.9 0.0 0.00 0.00 0.42 100 1007.4
20260506100047 46 83 0.9 0.0 0.00 0.00 0.40 100 1007.1
20260506094540 46 103 0.0 0.0 0.00 0.00 0.40 100 1007.0
20260506093030 46 101 0.0 0.0 0.00 0.00 0.40 100 1006.9
20260506091520 46 120 0.0 0.0 0.00 0.00 0.38 100 1007.1
20260506090019 46 101 0.0 0.0 0.00 0.00 0.37 100 1007.8
20260506083053 46 101 0.0 0.0 0.00 0.00 0.35 100 1007.8
20260506081646 46 101 0.9 0.0 0.00 0.00 0.32 100 1007.7
20260506080136 46 95 3.5 0.0 0.00 0.00 0.30 100 1007.5
20260506073018 46 96 3.5 0.0 0.00 0.00 0.26 100 1007.6
20260506071507 46 113 3.5 0.0 0.00 0.00 0.24 100 1007.7